Eagle, CO

7:19 PM MDT on April 22, 2018 (GMT -0600)
Eagle County Regional

Weather History for KEGE - December, 2013

Change the Weather History Date:

Saturday, December 21, 2013

  Actual Average Record
Temperature  
Mean Temperature 18 °F -  
Max Temperature 26 °F 32 °F 55 °F (1969)
Min Temperature 10 °F 4 °F -17 °F (1954)
Degree Days  
Heating Degree Days 47    
Moisture  
Dew Point 16 °F    
Average Humidity 90    
Maximum Humidity 100    
Minimum Humidity 80    
Precipitation  
Precipitation 0.00 in - - ()
Sea Level Pressure  
Sea Level Pressure 29.73 in    
Wind  
Wind Speed 2 mph (SW)    
Max Wind Speed 12 mph    
Max Gust Speed -    
Visibility 9 miles    
Events Snow    
Averages and records for this station are not official NWS values.
T = Trace of Precipitation, MM = Missing Value Source: NWS Daily Summary

Daily Weather History Graph

Daily Weather History Graph

Search for Another Location

Airport or City:

Astronomy

Dec. 21, 2013 Rise Set
Actual Time 7:25 AM MST 4:46 PM MST
Civil Twilight 6:54 AM MST 5:17 PM MST
Nautical Twilight 6:20 AM MST 5:51 PM MST
Astronomical Twilight 5:47 AM MST 6:24 PM MST
Moon 9:05 PM MST (12/21) 9:53 AM MST (12/21)
Length of Visible Light 10h 22m
Length of Day
9h 21m
Waning Gibbous, 84% of the Moon is Illuminated
Dec 21
Waning Gibbous
Dec 25
Last Quarter
Jan 1
New
Jan 7
First Quarter
Jan 15
Full

Hourly Weather History & Observations

Time (MST) Temp. Windchill Dew Point Humidity Pressure Visibility Wind Dir Wind Speed Gust Speed Precip Events Conditions
12:15 AM 17.6 °F 10.7 °F 14.0 °F 86% 29.73 in 10.0 mi South 4.6 mph - N/A   Partly Cloudy
12:35 AM 17.6 °F - 15.8 °F 93% 29.71 in 10.0 mi Calm Calm - N/A   Clear
12:55 AM 15.8 °F - 15.8 °F 100% 29.70 in 10.0 mi Calm Calm - N/A   Mostly Cloudy
1:15 AM 15.8 °F 10.2 °F 14.0 °F 93% 29.69 in 10.0 mi SSE 3.5 mph - N/A   Overcast
1:35 AM 17.6 °F - 15.8 °F 93% 29.69 in 10.0 mi Calm Calm - N/A   Overcast
1:55 AM 15.8 °F - 14.0 °F 93% 29.69 in 10.0 mi Calm Calm - N/A   Overcast
2:35 AM 17.6 °F - 15.8 °F 93% 29.68 in 10.0 mi Calm Calm - N/A   Overcast
2:55 AM 19.4 °F - 15.8 °F 86% 29.68 in 10.0 mi Calm Calm - N/A   Overcast
3:15 AM 17.6 °F - 15.8 °F 93% 29.68 in 10.0 mi Calm Calm - N/A   Overcast
3:35 AM 17.6 °F - 15.8 °F 93% 29.68 in 10.0 mi Calm Calm - N/A   Overcast
3:55 AM 17.6 °F 12.3 °F 15.8 °F 93% 29.67 in 10.0 mi WSW 3.5 mph - N/A   Overcast
4:15 AM 15.8 °F - 14.0 °F 93% 29.67 in 10.0 mi Calm Calm - N/A   Overcast
4:35 AM 15.8 °F 10.2 °F 14.0 °F 93% 29.67 in 10.0 mi WSW 3.5 mph - N/A   Overcast
4:55 AM 15.8 °F - 14.0 °F 93% 29.67 in 10.0 mi Calm Calm - N/A   Overcast
5:15 AM 19.4 °F - 15.8 °F 86% 29.67 in 10.0 mi Calm Calm - N/A   Overcast
5:35 AM 15.8 °F - 14.0 °F 93% 29.67 in 10.0 mi Calm Calm - N/A   Mostly Cloudy
5:55 AM 17.6 °F - 14.0 °F 86% 29.68 in 10.0 mi Calm Calm - N/A   Overcast
6:15 AM 17.6 °F - 14.0 °F 86% 29.68 in 10.0 mi Calm Calm - N/A   Overcast
6:35 AM 19.4 °F - 15.8 °F 86% 29.68 in 10.0 mi Calm Calm - N/A   Overcast
6:50 AM 17.6 °F - 15.8 °F 93% 29.68 in 10.0 mi Calm Calm - N/A   Overcast
7:30 AM 17.6 °F - 14.0 °F 86% 29.68 in 3.0 mi Calm Calm - N/A Snow Light Snow
7:50 AM 17.6 °F - 15.8 °F 93% 29.68 in 3.0 mi Calm Calm - N/A Snow Light Snow
8:25 AM 17.6 °F - 15.8 °F 93% 29.69 in 1.0 mi Calm Calm - N/A Snow Light Snow
8:50 AM 17.6 °F - 15.8 °F 93% 29.70 in 3.0 mi Calm Calm - N/A Snow Light Snow
9:55 AM 17.6 °F - 17.6 °F 100% 29.71 in 1.0 mi Calm Calm - N/A Snow Light Snow
10:15 AM 19.4 °F - 17.6 °F 93% 29.70 in 8.0 mi Calm Calm - N/A   Mostly Cloudy
10:50 AM 19.4 °F 14.3 °F 17.6 °F 93% 29.70 in 10.0 mi South 3.5 mph - N/A   Mostly Cloudy
11:50 AM 24.8 °F - 19.4 °F 80% 29.66 in 10.0 mi Calm Calm - N/A   Mostly Cloudy
12:50 PM 24.8 °F - 19.4 °F 80% 29.65 in 10.0 mi Calm Calm - N/A   Overcast
1:55 PM 26.6 °F 20.0 °F 21.2 °F 80% 29.66 in 7.0 mi West 5.8 mph - N/A   Overcast
2:55 PM 26.6 °F 16.2 °F 21.2 °F 80% 29.68 in 7.0 mi West 11.5 mph - N/A   Overcast
3:50 PM 26.6 °F 20.0 °F 21.2 °F 80% 29.71 in 10.0 mi West 5.8 mph - N/A   Mostly Cloudy
4:50 PM 26.6 °F 19.1 °F 21.2 °F 80% 29.73 in 10.0 mi West 6.9 mph - N/A   Scattered Clouds
5:50 PM 24.8 °F - 19.4 °F 80% 29.77 in 10.0 mi Calm Calm - N/A   Overcast
6:50 PM 24.8 °F - 19.4 °F 80% 29.81 in 7.0 mi Calm Calm - N/A   Mostly Cloudy
7:50 PM 23.0 °F 15.8 °F 19.4 °F 86% 29.85 in 7.0 mi Variable 5.8 mph - N/A   Mostly Cloudy
8:50 PM 21.2 °F - 19.4 °F 93% 29.87 in 7.0 mi Calm Calm - N/A   Scattered Clouds
9:50 PM 17.6 °F - 15.8 °F 93% 29.89 in 10.0 mi Calm Calm - N/A   Partly Cloudy
10:50 PM 12.2 °F - 10.4 °F 92% 29.92 in 10.0 mi Calm Calm - N/A   Scattered Clouds
11:15 PM 10.4 °F - 10.4 °F 100% 29.93 in 10.0 mi Calm Calm - N/A   Clear
11:35 PM 10.4 °F 4.0 °F 10.4 °F 100% 29.94 in 10.0 mi ESE 3.5 mph - N/A   Clear
11:55 PM 10.4 °F 4.0 °F 8.6 °F 92% 29.95 in 10.0 mi ESE 3.5 mph - N/A   Clear